Fresno, CA

12:00 PM PDT on August 21, 2017 (GMT -0700)
Fresno Yosemite International

Weather History for KFAT - May, 2013

Change the Weather History Date:

Friday, May 17, 2013

  Actual Average Record
Temperature  
Mean Temperature 69 °F 70 °F  
Max Temperature 82 °F 85 °F 106 °F (2009)
Min Temperature 55 °F 57 °F 44 °F (1971)
Degree Days  
Heating Degree Days 0    
Month to date heating degree days 1  
Since 1 July heating degree days 1742  
Cooling Degree Days 4    
Month to date cooling degree days 171  
Year to date cooling degree days 318  
Growing Degree Days 18 (Base 50)    
Moisture  
Dew Point 40 °F    
Average Humidity 45    
Maximum Humidity 72    
Minimum Humidity 17    
Precipitation  
Precipitation 0.00 in 0.02 in 0.44 in (1915)
Month to date precipitation 0.07 0.28  
Year to date precipitation 2.28 7.48  
Since 1 July precipitation 5.67  
Snow  
Snow 0.00 in - - ()
Month to date snowfall 0.0  
Since 1 July snowfall 0.0  
Snow Depth 0.00 in    
Sea Level Pressure  
Sea Level Pressure 29.96 in    
Wind  
Wind Speed 13 mph (NW)    
Max Wind Speed 18 mph    
Max Gust Speed 24 mph    
Visibility 10 miles    
Events      
T = Trace of Precipitation, MM = Missing Value Source: NWS Daily Summary

Daily Weather History Graph

Daily Weather History Graph

Search for Another Location

Airport or City:

Trip Planner

Search our weather history database for the weather conditions in past years. The results will help you decide how hot, cold, wet, or windy it might be!

Date:

Astronomy

May. 17, 2013 Rise Set
Actual Time 5:49 AM PDT 8:01 PM PDT
Civil Twilight 5:20 AM PDT 8:30 PM PDT
Nautical Twilight 4:44 AM PDT 9:06 PM PDT
Astronomical Twilight 4:06 AM PDT 9:45 PM PDT
Moon 12:22 PM PDT (5/17) 1:00 AM PDT (5/17)
Length of Visible Light 15h 10m
Length of Day
14h 12m
Waxing Crescent, 46% of the Moon is Illuminated
May 17
Waxing Crescent
May 17
First Quarter
May 24
Full
May 31
Last Quarter
Jun 8
New

Hourly Weather History & Observations

Time (PDT) Temp. Dew Point Humidity Pressure Visibility Wind Dir Wind Speed Gust Speed Precip Events Conditions
12:53 AM 63.0 °F 45.0 °F 52% 29.94 in 10.0 mi NW 11.5 mph - N/A   Mostly Cloudy
1:53 AM 61.0 °F 44.1 °F 54% 29.93 in 10.0 mi NW 15.0 mph - N/A   Mostly Cloudy
2:53 AM 59.0 °F 44.1 °F 58% 29.93 in 10.0 mi NW 12.7 mph - N/A   Mostly Cloudy
3:53 AM 57.0 °F 45.0 °F 64% 29.93 in 10.0 mi WNW 11.5 mph - N/A   Mostly Cloudy
4:53 AM 55.4 °F 46.4 °F 72% 29.94 in 10.0 mi WNW 10.4 mph - N/A   Mostly Cloudy
5:53 AM 55.0 °F 45.0 °F 69% 29.94 in 10.0 mi NW 9.2 mph - N/A   Scattered Clouds
6:53 AM 55.9 °F 46.0 °F 69% 29.96 in 10.0 mi NW 10.4 mph - N/A   Scattered Clouds
7:53 AM 60.1 °F 46.0 °F 60% 29.97 in 10.0 mi WNW 12.7 mph - N/A   Scattered Clouds
8:53 AM 64.9 °F 43.0 °F 45% 29.98 in 10.0 mi WNW 13.8 mph - N/A   Scattered Clouds
9:53 AM 68.0 °F 39.9 °F 36% 29.99 in 10.0 mi NW 12.7 mph - N/A   Partly Cloudy
10:53 AM 72.0 °F 39.0 °F 30% 29.99 in 10.0 mi NNW 10.4 mph - N/A   Partly Cloudy
11:53 AM 73.4 °F 39.2 °F 29% 29.99 in 10.0 mi NW 10.4 mph 16.1 mph N/A   Partly Cloudy
12:53 PM 78.1 °F 39.9 °F 25% 29.97 in 10.0 mi NW 11.5 mph 16.1 mph N/A   Clear
1:53 PM 79.0 °F 39.0 °F 24% 29.97 in 10.0 mi WNW 6.9 mph 17.3 mph N/A   Partly Cloudy
2:53 PM 80.1 °F 37.9 °F 22% 29.96 in 10.0 mi WNW 12.7 mph 16.1 mph N/A   Partly Cloudy
3:53 PM 81.0 °F 37.9 °F 21% 29.95 in 10.0 mi NW 9.2 mph - N/A   Partly Cloudy
4:53 PM 81.0 °F 34.0 °F 18% 29.94 in 10.0 mi WNW 13.8 mph - N/A   Partly Cloudy
5:53 PM 80.1 °F 34.0 °F 19% 29.94 in 10.0 mi NNW 13.8 mph - N/A   Partly Cloudy
6:53 PM 79.0 °F 30.0 °F 17% 29.94 in 10.0 mi NW 13.8 mph - N/A   Clear
7:53 PM 75.0 °F 36.0 °F 24% 29.95 in 10.0 mi NW 13.8 mph - N/A   Clear
8:53 PM 73.0 °F 37.0 °F 27% 29.96 in 10.0 mi NW 12.7 mph 21.9 mph N/A   Clear
9:53 PM 72.0 °F 42.1 °F 34% 29.98 in 10.0 mi NW 17.3 mph - N/A   Clear
10:53 PM 66.9 °F 41.0 °F 39% 30.00 in 10.0 mi NW 17.3 mph - N/A   Clear
11:53 PM 64.0 °F 39.9 °F 41% 30.00 in 10.0 mi NW 15.0 mph - N/A   Clear